Benson, United Kingdom

8:08 AM BST on September 20, 2017 (GMT +0100)
Benson Air Base

Weather History for EGUB - November, 2012

Change the Weather History Date:

Thursday, November 22, 2012

  Actual Average Record
Temperature  
Mean Temperature 50 °F -  
Max Temperature 55 °F 45 °F 58 °F (2014)
Min Temperature 44 °F 36 °F 21 °F (2015)
Degree Days  
Heating Degree Days 16    
Moisture  
Dew Point 46 °F    
Average Humidity 80    
Maximum Humidity 94    
Minimum Humidity 59    
Precipitation  
Precipitation 0.24 in - - ()
Sea Level Pressure  
Sea Level Pressure 29.78 in    
Wind  
Wind Speed 17 mph ()    
Max Wind Speed 32 mph    
Max Gust Speed 47 mph    
Visibility 7.0 miles    
Events Rain    
Averages and records for this station are not official NWS values.
T = Trace of Precipitation, MM = Missing Value Source: Averaged Metar Reports

Daily Weather History Graph

Daily Weather History Graph

Search for Another Location

Airport or City:

Trip Planner

Search our weather history database for the weather conditions in past years. The results will help you decide how hot, cold, wet, or windy it might be!

Date:

Astronomy

Nov. 22, 2012 Rise Set
Actual Time 7:35 AM GMT 4:05 PM GMT
Civil Twilight 6:56 AM GMT 4:43 PM GMT
Nautical Twilight 6:15 AM GMT 5:25 PM GMT
Astronomical Twilight 5:35 AM GMT 6:05 PM GMT
Moon 1:18 PM GMT (11/22) 1:01 AM GMT (11/22)
Length of Visible Light 9h 46m
Length of Day
8h 30m
Waxing Gibbous, 69% of the Moon is Illuminated
Nov 22
Waxing Gibbous
Nov 28
Full
Dec 6
Last Quarter
Dec 13
New
Dec 20
First Quarter

Hourly Weather History & Observations

Time (GMT) Temp. Windchill Dew Point Humidity Pressure Visibility Wind Dir Wind Speed Gust Speed Precip Events Conditions
12:50 AM 44.6 °F 39.7 °F 41.0 °F 87% 29.95 in 6.2 mi South 9.2 mph - N/A   Scattered Clouds
1:50 AM 46.4 °F 40.7 °F 44.6 °F 93% 29.92 in 6.2 mi South 12.7 mph - N/A   Scattered Clouds
2:50 AM 48 °F - 46 °F 89% 29.93 in 12 mi South 13.8 mph - -   Mostly Cloudy
2:50 AM 48.2 °F - 46.4 °F 93% 29.92 in 6.2 mi South 13.8 mph - N/A   Mostly Cloudy
3:50 AM 50.0 °F - 48.2 °F 94% 29.89 in 6.2 mi South 12.7 mph - N/A   Mostly Cloudy
4:50 AM 51.8 °F - 46.4 °F 82% 29.89 in 6.2 mi South 17.3 mph - N/A   Mostly Cloudy
5:50 AM 50 °F - 46 °F 82% 29.89 in 16 mi South 17.3 mph - -   Partly Cloudy
5:50 AM 50.0 °F - 46.4 °F 87% 29.86 in 6.2 mi South 17.3 mph - N/A   Partly Cloudy
6:50 AM 51.8 °F - 48.2 °F 88% 29.86 in 6.2 mi South 16.1 mph - N/A   Scattered Clouds
7:50 AM 51.8 °F - 48.2 °F 88% 29.86 in 6.2 mi South 15.0 mph - N/A   Scattered Clouds
8:50 AM 53 °F - 48 °F 79% 29.87 in 12 mi South 20.7 mph - - Rain Light Rain Showers
8:50 AM 53.6 °F - 48.2 °F 82% 29.86 in 6.2 mi South 20.7 mph - N/A   Mostly Cloudy
9:50 AM 53.6 °F - 48.2 °F 82% 29.86 in 6.2 mi South 24.2 mph - N/A   Scattered Clouds
10:50 AM 55.4 °F - 48.2 °F 77% 29.83 in 6.2 mi South 26.5 mph 40.3 mph N/A   Mostly Cloudy
11:50 AM 55 °F - 47 °F 66% 29.81 in 12 mi South 24.2 mph - -   Partly Cloudy
11:50 AM 55.4 °F - 46.4 °F 72% 29.80 in 6.2 mi South 24.2 mph 39.1 mph N/A   Mostly Cloudy
12:50 PM 55.4 °F - 46.4 °F 72% 29.77 in 6.2 mi South 26.5 mph - N/A   Mostly Cloudy
1:50 PM 53.6 °F - 44.6 °F 72% 29.74 in 6.2 mi South 29.9 mph 42.6 mph N/A Rain Light Rain
2:50 PM 53 °F - 46 °F 69% 29.74 in 12 mi South 25.3 mph - - Rain Light Rain
2:50 PM 53.6 °F - 46.4 °F 77% 29.74 in 6.2 mi South 25.3 mph 38.0 mph N/A   Mostly Cloudy
3:50 PM 53.6 °F - 44.6 °F 72% 29.71 in 6.2 mi South 26.5 mph - N/A   Overcast
4:50 PM 53.6 °F - 44.6 °F 72% 29.68 in 6.2 mi South 27.6 mph - N/A   Overcast
5:50 PM 54 °F - 44 °F 59% 29.68 in 12 mi South 28.8 mph - -   Partly Cloudy
5:50 PM 53.6 °F - 44.6 °F 72% 29.65 in 6.2 mi South 28.8 mph 40.3 mph N/A   Overcast
6:50 PM 53.6 °F - 44.6 °F 72% 29.65 in 6.2 mi South 31.1 mph 44.9 mph N/A   Mostly Cloudy
7:50 PM 53.6 °F - 44.6 °F 72% 29.62 in 6.2 mi South 32.2 mph 47.2 mph N/A Rain Light Rain
8:50 PM 53 °F - 47 °F 72% 29.62 in 4 mi South 29.9 mph - - Rain Light Rain
8:50 PM 53.6 °F - 46.4 °F 77% 29.59 in 3.7 mi South 29.9 mph 44.9 mph N/A Rain Light Rain
9:50 PM 50.0 °F - 46.4 °F 87% 29.65 in 4.3 mi SW 17.3 mph - N/A Rain Rain
10:50 PM 46.4 °F 40.7 °F 42.8 °F 87% 29.68 in 4.3 mi WSW 12.7 mph - N/A Rain Rain
11:50 PM 45 °F - 43 °F 90% 29.72 in 4 mi SW 6.9 mph - - Rain Rain
11:50 PM 44.6 °F 40.7 °F 42.8 °F 93% 29.71 in 4.3 mi SW 6.9 mph - N/A Rain Rain